Total_Precipitation_Accumulation
2.16 2.35 2.30 2.20 2.12 2.21 2.13 1.96 1.75 1.76 1.70 1.51 1.34 1.35 1.38 1.38 1.36 1.45 1.56 1.45 1.48 1.73 2.17 2.47 2.57 2.49 2.43 2.41 2.36 2.25 2.10 1.98 1.87 1.70 1.56 1.39 1.24 1.17 1.17 1.21 1.23 1.20 1.19
2.69 2.86 2.82 2.65 2.44 2.44 2.38 2.28 2.21 2.26 2.17 2.08 1.86 1.72 1.60 1.64 1.58 1.60 1.79 1.83 1.70 1.72 2.13 2.62 2.87 2.86 2.76 2.73 2.57 2.36 2.29 2.25 2.20 2.07 1.94 1.74 1.52 1.41 1.34 1.31 1.33 1.30 1.26
3.15 3.24 3.27 3.01 2.78 2.75 2.86 2.80 2.71 2.67 2.41 2.30 2.20 2.08 1.90 1.76 1.71 1.73 1.90 2.19 2.08 2.06 2.20 2.31 2.47 2.63 2.80 2.98 3.02 2.84 2.64 2.50 2.41 2.33 2.23 2.11 1.92 1.73 1.62 1.56 1.54 1.47 1.40
3.26 3.36 3.39 3.27 3.13 3.06 3.29 3.40 3.32 3.21 3.03 2.93 2.73 2.45 2.15 2.04 2.02 2.12 2.19 2.36 2.57 2.50 2.49 2.34 2.21 2.32 2.65 2.95 3.12 3.16 3.00 2.74 2.58 2.54 2.47 2.40 2.21 2.04 1.89 1.80 1.79 1.70 1.56
3.61 3.66 3.60 3.60 3.62 3.68 3.67 3.47 3.56 3.41 3.40 3.28 2.84 2.58 2.25 2.15 2.24 2.22 2.32 2.36 2.52 2.54 2.56 2.38 2.26 2.26 2.45 2.80 2.98 3.22 3.24 3.14 3.00 2.85 2.75 2.68 2.55 2.35 2.15 2.01 1.91 1.83 1.69
4.00 4.21 4.19 4.10 4.11 4.07 3.88 3.81 3.78 3.59 3.42 3.28 2.83 2.56 2.30 2.15 2.13 2.19 2.21 2.19 2.18 2.17 2.19 2.27 2.45 2.30 2.37 2.50 2.56 2.80 3.08 3.26 3.16 3.04 2.95 2.90 2.74 2.50 2.25 2.12 2.04 1.99 1.91
4.76 4.78 4.60 4.38 4.25 4.24 4.16 4.12 3.94 3.72 3.47 3.32 3.21 2.84 2.35 2.07 2.06 2.03 2.02 2.00 1.97 1.99 2.08 2.17 2.20 2.16 2.14 2.21 2.18 2.32 2.58 2.91 3.04 3.11 3.15 3.06 2.93 2.75 2.49 2.29 2.19 2.14 2.08
4.99 4.90 4.92 4.84 4.63 4.44 4.25 4.07 3.99 3.83 3.50 3.37 3.31 3.17 2.69 2.28 1.91 1.68 1.70 1.66 1.67 1.83 1.86 1.85 1.96 2.04 2.04 2.10 2.11 2.24 2.38 2.55 2.78 2.92 2.91 2.86 2.80 2.81 2.77 2.64 2.48 2.35 2.26
5.22 5.07 4.91 4.69 4.52 4.39 4.23 4.02 3.84 3.74 3.52 3.39 3.31 3.35 3.03 2.59 2.09 1.74 1.56 1.48 1.44 1.55 1.62 1.67 1.71 1.79 1.89 1.98 2.01 2.14 2.22 2.23 2.42 2.60 2.67 2.70 2.67 2.65 2.65 2.65 2.62 2.57 2.49
4.85 4.61 4.48 4.36 4.16 3.86 3.63 3.47 3.39 3.25 3.13 2.99 2.99 2.93 2.76 2.57 2.52 2.27 1.96 1.78 1.69 1.64 1.63 1.60 1.63 1.73 1.78 1.91 2.06 2.12 2.08 2.06 2.20 2.30 2.38 2.48 2.54 2.61 2.64 2.68 2.66 2.65 2.65
4.23 3.98 3.84 3.66 3.43 3.06 2.70 2.57 2.65 2.74 2.75 2.67 2.65 2.68 2.66 2.51 2.44 2.36 2.19 2.01 1.89 1.77 1.70 1.75 1.80 1.80 1.78 1.79 1.84 1.99 1.98 1.83 1.92 2.00 2.14 2.27 2.34 2.45 2.54 2.59 2.64 2.64 2.67
3.62 3.27 2.96 2.67 2.44 2.27 2.06 2.01 2.05 2.14 2.32 2.43 2.54 2.57 2.56 2.47 2.39 2.38 2.26 2.17 2.09 1.95 1.80 1.72 1.74 1.77 1.76 1.75 1.75 1.90 1.72 1.63 1.61 1.66 1.78 1.89 1.96 2.04 2.14 2.30 2.48 2.60 2.72
2.86 2.57 2.29 2.15 2.01 1.90 1.83 1.79 1.76 1.73 1.83 1.98 2.10 2.23 2.32 2.32 2.32 2.38 2.44 2.41 2.22 2.06 1.96 1.81 1.71 1.68 1.69 1.71 1.71 1.79 1.61 1.51 1.43 1.41 1.38 1.43 1.48 1.57 1.73 1.90 2.08 2.25 2.38
2.15 1.89 1.68 1.56 1.54 1.56 1.49 1.52 1.54 1.54 1.55 1.61 1.68 1.86 2.00 2.05 2.09 2.11 2.14 2.22 2.25 2.13 1.93 1.79 1.73 1.64 1.55 1.47 1.48 1.47 1.30 1.31 1.20 1.17 1.17 1.18 1.20 1.22 1.27 1.35 1.44 1.55 1.63
1.53 1.37 1.26 1.24 1.21 1.21 1.23 1.22 1.22 1.27 1.35 1.40 1.41 1.48 1.58 1.64 1.71 1.79 1.87 1.93 2.05 2.08 1.92 1.70 1.62 1.52 1.36 1.23 1.26 1.08 1.02 1.06 0.96 0.90 0.88 0.90 0.92 0.95 0.99 1.03 1.10 1.17 1.22
1.17 1.12 1.07 1.01 0.94 0.91 0.90 0.91 0.94 0.99 1.06 1.15 1.18 1.21 1.28 1.31 1.40 1.50 1.64 1.73 1.75 1.81 1.79 1.56 1.37 1.26 1.17 1.04 1.08 0.95 0.95 0.97 0.83 0.80 0.75 0.75 0.80 0.87 0.89 0.92 0.95 0.98 1.01
0.87 0.81 0.76 0.72 0.69 0.71 0.74 0.78 0.81 0.85 0.89 0.96 1.04 1.08 1.12 1.11 1.17 1.24 1.27 1.33 1.46 1.55 1.57 1.40 1.23 1.16 1.11 1.02 0.98 0.97 0.94 0.87 0.79 0.81 0.76 0.74 0.74 0.74 0.76 0.77 0.78 0.82 0.89
0.71 0.62 0.56 0.55 0.55 0.57 0.59 0.62 0.66 0.70 0.79 0.84 0.88 0.92 0.94 0.94 0.98 1.01 1.05 1.07 1.16 1.27 1.34 1.34 1.24 1.16 1.11 1.04 0.98 0.99 0.82 0.69 0.68 0.72 0.67 0.62 0.61 0.61 0.62 0.64 0.64 0.65 0.66
0.66 0.59 0.52 0.52 0.50 0.48 0.49 0.50 0.52 0.54 0.63 0.71 0.75 0.80 0.82 0.82 0.81 0.78 0.82 0.90 0.97 1.05 1.20 1.22 1.13 1.05 0.98 0.93 0.97 0.88 0.80 0.87 0.66 0.62 0.57 0.51 0.50 0.49 0.49 0.50 0.51 0.51 0.51
0.53 0.52 0.51 0.49 0.47 0.44 0.44 0.43 0.40 0.44 0.49 0.54 0.57 0.62 0.66 0.70 0.71 0.73 0.72 0.84 0.92 1.05 1.13 1.14 1.07 0.99 0.94 0.89 0.99 0.99 0.93 0.89 0.73 0.52 0.53 0.46 0.45 0.43 0.44 0.44 0.44 0.44 0.43
0.48 0.45 0.44 0.44 0.40 0.35 0.30 0.29 0.33 0.39 0.46 0.47 0.50 0.49 0.49 0.54 0.63 0.65 0.65 0.73 0.84 0.99 1.02 1.02 1.02 0.98 0.93 0.96 0.98 0.94 0.95 0.90 0.78 0.62 0.63 0.55 0.54 0.57 0.60 0.56 0.50 0.48 0.43
0.46 0.44 0.43 0.41 0.36 0.27 0.26 0.25 0.27 0.36 0.46 0.49 0.48 0.46 0.42 0.39 0.44 0.51 0.53 0.60 0.73 0.84 0.92 0.97 0.97 0.97 0.94 0.99 1.03 1.00 1.02 1.03 0.98 0.73 0.73 0.65 0.59 0.69 0.71 0.67 0.59 0.47 0.41
0.52 0.47 0.44 0.43 0.44 0.37 0.24 0.20 0.22 0.33 0.47 0.47 0.47 0.50 0.45 0.41 0.46 0.52 0.52 0.50 0.55 0.59 0.68 0.85 0.96 1.00 1.05 1.14 1.23 1.19 1.16 1.14 1.12 0.89 0.91 0.85 0.71 0.78 0.65 0.58 0.62 0.52 0.44
0.53 0.50 0.48 0.48 0.52 0.41 0.26 0.18 0.21 0.32 0.42 0.39 0.41 0.48 0.54 0.54 0.46 0.46 0.50 0.54 0.59 0.61 0.63 0.67 0.86 0.93 0.94 1.03 1.15 1.19 1.19 1.14 1.10 1.05 1.08 1.08 0.83 0.78 0.68 0.87 0.87 0.72 0.57
0.57 0.55 0.53 0.56 0.58 0.46 0.31 0.24 0.26 0.35 0.41 0.42 0.43 0.41 0.40 0.42 0.40 0.45 0.53 0.67 0.70 0.75 0.61 0.65 0.75 0.81 0.84 0.89 0.94 1.03 1.17 1.28 1.25 1.12 1.06 1.09 0.97 0.86 0.86 1.07 1.04 0.99 0.81
0.54 0.48 0.51 0.59 0.58 0.50 0.34 0.27 0.29 0.32 0.40 0.50 0.54 0.51 0.42 0.37 0.39 0.42 0.55 0.71 0.81 0.81 0.83 0.99 1.10 1.09 1.03 1.00 0.96 1.05 1.24 1.31 1.32 1.28 1.10 1.11 1.13 1.07 1.09 1.14 1.19 1.14 1.05